Tracking 28790 objects as of 18-Apr-2024
HD Live streaming from Space Station
objects crossing your sky now

STARLINK-2755

Track STARLINK-2755 now!
10-day predictions
STARLINK-2755 is classified as:


NORAD ID: 48479
Int'l Code: 2021-040BD
Perigee: 553.3 km
Apogee: 555.5 km
Inclination: 53.1 °
Period: 95.6 minutes
Semi major axis: 6925 km
RCS: Unknown
Launch date: May 9, 2021
Source: United States (US)
Launch site: AIR FORCE EASTERN TEST RANGE (AFETR)
Your satellite tracking list
Your tracking list is empty




NASA's NSSDC Master Catalog

Two Line Element Set (TLE):
1 48479U 21040BD  24109.06451544 -.00004190  00000-0 -26261-3 0  9990
2 48479  53.0544  51.9480 0001624  99.2068 260.9105 15.06389710163675
Source of the keplerian elements: AFSPC